AIC2028 EDDF-VABB

Flight info

Callsign AIC2028
Flight time N/A
Altitude 35000
Route CINDY8S/18 CINDY Z74 LAMPU DCT NOMBO Y161 MAH DCT LATLO DCT OBEDI DCT KLAGY DCT MAGAM DCT MEDUX UM867 KOGAT DCT ERANA DCT TSL UN130 MES UL609 RDS DCT VANZA N134 TULEP N318 NEVOL Q255 LUDEP P559 RADGI/N0484F370 P559 NALPO DCT TONVO P307 PARAR N571 SUGID KETOR2A
Aircraft B77W/H-SDE1E2E3FGHIJ2J3J4J5M1RWXY/LB1D1

Departure

Time 2026-04-14 13:23
Airport Frankfurt Main Airport (EDDF)

Arrival

Time N/A
Airport Chhatrapati Shivaji Maharaj International Airport (VABB)
Time Latitude Longitude Altitude Speed Heading
2026-04-14 13:05 50.04491 8.56471 376 ft 0 kts 160°
2026-04-14 13:13 50.04507 8.56463 375 ft 3 kts 160°
2026-04-14 13:14 50.04528 8.56451 371 ft 3 kts 160°
2026-04-14 13:14 50.04537 8.56441 367 ft 0 kts 246°
2026-04-14 13:16 50.04532 8.56423 367 ft 10 kts 246°
2026-04-14 13:17 50.04470 8.56208 370 ft 29 kts 247°
2026-04-14 13:17 50.04422 8.56043 369 ft 14 kts 228°
2026-04-14 13:17 50.04369 8.56039 370 ft 9 kts 160°
2026-04-14 13:17 50.04301 8.56063 367 ft 18 kts 191°
2026-04-14 13:18 50.04217 8.55840 359 ft 21 kts 249°
2026-04-14 13:18 50.04160 8.55610 361 ft 23 kts 249°
2026-04-14 13:18 50.04121 8.55452 366 ft 23 kts 249°
2026-04-14 13:18 50.04045 8.55139 366 ft 23 kts 249°
2026-04-14 13:19 50.04007 8.54981 365 ft 23 kts 249°
2026-04-14 13:19 50.03947 8.54725 355 ft 26 kts 251°
2026-04-14 13:19 50.03887 8.54456 360 ft 27 kts 249°
2026-04-14 13:19 50.03795 8.54197 358 ft 27 kts 246°
2026-04-14 13:20 50.03722 8.53924 358 ft 27 kts 250°
2026-04-14 13:20 50.03661 8.53641 354 ft 28 kts 252°
2026-04-14 13:20 50.03594 8.53360 350 ft 29 kts 246°
2026-04-14 13:20 50.03522 8.53076 352 ft 21 kts 249°
2026-04-14 13:21 50.03471 8.52875 356 ft 19 kts 248°
2026-04-14 13:21 50.03439 8.52752 359 ft 9 kts 248°
2026-04-14 13:21 50.03436 8.52743 359 ft 0 kts 248°
2026-04-14 13:22 50.03411 8.52644 358 ft 14 kts 244°
2026-04-14 13:22 50.03336 8.52602 358 ft 14 kts 179°
2026-04-14 13:22 50.03132 8.52594 356 ft 68 kts 181°
2026-04-14 13:22 50.02321 8.52601 364 ft 166 kts 179°
2026-04-14 13:23 50.00871 8.52589 465 ft 243 kts 182°
2026-04-14 13:23 49.99081 8.52533 1665 ft 256 kts 181°
2026-04-14 13:23 49.97332 8.52537 3200 ft 250 kts 177°
2026-04-14 13:23 49.95575 8.52709 3821 ft 257 kts 175°
2026-04-14 13:24 49.93774 8.52911 4255 ft 265 kts 175°
2026-04-14 13:24 49.89986 8.53271 5729 ft 277 kts 176°
2026-04-14 13:24 49.88048 8.53432 6602 ft 281 kts 176°
2026-04-14 13:25 49.86116 8.53577 7136 ft 282 kts 177°
2026-04-14 13:25 49.84130 8.53723 7179 ft 287 kts 176°
2026-04-14 13:26 49.78673 8.56492 7200 ft 289 kts 119°
2026-04-14 13:26 49.78003 8.59402 7202 ft 286 kts 97°
2026-04-14 13:26 49.77802 8.62450 7258 ft 286 kts 92°
2026-04-14 13:26 49.77645 8.65536 7901 ft 290 kts 93°
2026-04-14 13:27 49.77488 8.68677 8741 ft 294 kts 94°
2026-04-14 13:27 49.77230 8.71812 9464 ft 297 kts 104°
2026-04-14 13:27 49.76627 8.74860 10178 ft 303 kts 110°
2026-04-14 13:27 49.75891 8.77985 10990 ft 305 kts 111°
2026-04-14 13:28 49.75145 8.81122 11593 ft 316 kts 111°
2026-04-14 13:28 49.74391 8.84360 11923 ft 337 kts 111°
2026-04-14 13:28 49.73575 8.87943 12122 ft 362 kts 110°
2026-04-14 13:28 49.72728 8.91736 12435 ft 382 kts 110°
2026-04-14 13:29 49.71876 8.95607 13083 ft 391 kts 110°
2026-04-14 13:29 49.70979 8.99702 13876 ft 398 kts 109°
2026-04-14 13:29 49.70093 9.03759 14627 ft 403 kts 109°
2026-04-14 13:29 49.69186 9.07909 15392 ft 407 kts 109°
2026-04-14 13:30 49.68282 9.12040 16161 ft 411 kts 109°
2026-04-14 13:30 49.67356 9.16258 16947 ft 415 kts 109°
2026-04-14 13:30 49.66435 9.20445 17669 ft 419 kts 109°
2026-04-14 13:30 49.65487 9.24748 18395 ft 424 kts 109°
2026-04-14 13:31 49.64525 9.29114 19085 ft 428 kts 109°
2026-04-14 13:31 49.63561 9.33468 19763 ft 431 kts 110°
2026-04-14 13:31 49.62493 9.37796 20333 ft 430 kts 117°
2026-04-14 13:31 49.60813 9.41629 20783 ft 434 kts 135°
2026-04-14 13:32 49.58548 9.44576 21392 ft 435 kts 148°
2026-04-14 13:32 49.55899 9.46921 21993 ft 434 kts 153°
2026-04-14 13:32 49.53241 9.49247 22458 ft 441 kts 152°
2026-04-14 13:32 49.50587 9.51652 23119 ft 443 kts 151°
2026-04-14 13:33 49.47958 9.54061 23754 ft 445 kts 151°
2026-04-14 13:33 49.45269 9.56527 24267 ft 448 kts 151°
2026-04-14 13:33 49.42554 9.59012 24664 ft 455 kts 151°
2026-04-14 13:33 49.39844 9.61483 24982 ft 462 kts 151°
2026-04-14 13:34 49.34340 9.66770 25831 ft 471 kts 144°
2026-04-14 13:34 49.31802 9.69966 26300 ft 474 kts 138°
2026-04-14 13:34 49.29483 9.73574 26738 ft 478 kts 135°
2026-04-14 13:35 49.27183 9.77219 27150 ft 481 kts 136°
2026-04-14 13:35 49.24796 9.80906 27538 ft 484 kts 136°
2026-04-14 13:35 49.22403 9.84552 27912 ft 486 kts 136°
2026-04-14 13:35 49.19991 9.88210 28274 ft 489 kts 136°
2026-04-14 13:36 49.17565 9.91888 28620 ft 491 kts 136°
2026-04-14 13:36 49.15189 9.95490 28930 ft 494 kts 136°
2026-04-14 13:36 49.12684 9.99287 29255 ft 496 kts 136°
2026-04-14 13:36 49.10265 10.02955 29654 ft 496 kts 136°
2026-04-14 13:37 49.07827 10.06643 30150 ft 494 kts 136°
2026-04-14 13:37 49.05376 10.10330 30583 ft 492 kts 137°
2026-04-14 13:37 49.02890 10.13883 30944 ft 491 kts 138°
2026-04-14 13:37 49.00358 10.17387 31282 ft 491 kts 139°
2026-04-14 13:38 48.97866 10.20846 31668 ft 489 kts 138°
2026-04-14 13:38 48.95359 10.24361 32106 ft 487 kts 138°
2026-04-14 13:38 48.92902 10.27823 32504 ft 486 kts 138°
2026-04-14 13:38 48.90426 10.31317 32845 ft 485 kts 138°
2026-04-14 13:39 48.87906 10.34869 33179 ft 485 kts 138°
2026-04-14 13:39 48.85429 10.38351 33519 ft 484 kts 138°
2026-04-14 13:39 48.82966 10.41819 33912 ft 482 kts 137°
2026-04-14 13:39 48.80632 10.45474 34214 ft 482 kts 133°
2026-04-14 13:40 48.78370 10.49213 34451 ft 482 kts 134°
2026-04-14 13:40 48.76104 10.52896 34670 ft 482 kts 134°
2026-04-14 13:40 48.73778 10.56639 34858 ft 483 kts 134°
2026-04-14 13:40 48.71471 10.60306 35076 ft 483 kts 135°
2026-04-14 13:41 48.69142 10.63938 35106 ft 486 kts 135°
2026-04-14 13:41 48.64402 10.71336 35148 ft 483 kts 134°
2026-04-14 13:42 48.59826 10.78656 35154 ft 479 kts 134°
2026-04-14 13:42 48.55283 10.85925 35159 ft 477 kts 134°
2026-04-14 13:43 48.50726 10.93221 35160 ft 477 kts 134°
2026-04-14 13:43 48.46149 11.00456 35165 ft 477 kts 135°
2026-04-14 13:44 48.41527 11.07626 35159 ft 478 kts 135°
2026-04-14 13:44 48.36893 11.14809 35159 ft 479 kts 135°
2026-04-14 13:45 48.32244 11.22018 35165 ft 479 kts 135°
2026-04-14 13:45 48.27644 11.29241 35153 ft 480 kts 131°
2026-04-14 13:46 48.23818 11.37457 35154 ft 481 kts 120°
2026-04-14 13:46 48.20594 11.46250 35156 ft 480 kts 120°
2026-04-14 13:47 48.17307 11.54972 35155 ft 480 kts 121°
2026-04-14 13:47 48.13999 11.63655 35163 ft 480 kts 121°
2026-04-14 13:48 48.10692 11.72308 35158 ft 480 kts 121°
2026-04-14 13:48 48.07383 11.80943 35171 ft 480 kts 121°
2026-04-14 13:49 48.04045 11.89629 35168 ft 481 kts 121°
2026-04-14 13:49 48.00709 11.98286 35169 ft 481 kts 122°
2026-04-14 13:50 47.97353 12.06963 35172 ft 482 kts 122°
2026-04-14 13:50 47.94007 12.15589 35166 ft 483 kts 122°
2026-04-14 13:51 47.90639 12.24241 35167 ft 483 kts 122°
2026-04-14 13:51 47.87277 12.32852 35164 ft 483 kts 122°
2026-04-14 13:52 47.83857 12.41582 35168 ft 482 kts 122°
2026-04-14 13:52 47.80503 12.50118 35166 ft 481 kts 122°
2026-04-14 13:53 47.77125 12.58687 35166 ft 481 kts 122°
2026-04-14 13:53 47.73742 12.67243 35154 ft 480 kts 122°
2026-04-14 13:54 47.70356 12.75780 35153 ft 479 kts 123°
2026-04-14 13:54 47.66457 12.83720 35144 ft 474 kts 135°
2026-04-14 13:55 47.61758 12.90562 35145 ft 473 kts 137°
2026-04-14 13:55 47.57327 12.97799 35147 ft 474 kts 132°
2026-04-14 13:56 47.53118 13.05304 35148 ft 474 kts 132°
2026-04-14 13:56 47.49610 13.11518 35139 ft 474 kts 132°
2026-04-14 13:57 47.44641 13.20200 35133 ft 473 kts 133°
2026-04-14 13:57 47.41074 13.26389 35128 ft 473 kts 133°
2026-04-14 13:58 47.36824 13.33739 35117 ft 473 kts 133°
2026-04-14 13:58 47.32547 13.41115 35115 ft 473 kts 133°
2026-04-14 13:59 47.28269 13.48478 35109 ft 472 kts 133°
2026-04-14 13:59 47.23981 13.55840 35087 ft 472 kts 133°
2026-04-14 14:00 47.19727 13.63122 35087 ft 472 kts 133°
2026-04-14 14:00 47.15445 13.70436 35089 ft 471 kts 133°
2026-04-14 14:01 47.11160 13.77728 35088 ft 471 kts 133°
2026-04-14 14:01 47.06869 13.85015 35093 ft 470 kts 133°
2026-04-14 14:02 47.02587 13.92267 35093 ft 470 kts 134°
2026-04-14 14:02 46.98299 13.99509 35094 ft 470 kts 134°
2026-04-14 14:03 46.94033 14.06695 35095 ft 470 kts 134°
2026-04-14 14:03 46.89727 14.13929 35087 ft 471 kts 134°
2026-04-14 14:04 46.85432 14.21127 35091 ft 470 kts 134°
2026-04-14 14:04 46.81123 14.28329 35101 ft 469 kts 134°
2026-04-14 14:05 46.76833 14.35480 35101 ft 469 kts 134°
2026-04-14 14:05 46.72523 14.42644 35099 ft 469 kts 134°
2026-04-14 14:06 46.68245 14.49739 35105 ft 469 kts 134°
2026-04-14 14:06 46.63929 14.56875 35098 ft 470 kts 134°
2026-04-14 14:07 46.59620 14.63985 35096 ft 470 kts 134°
2026-04-14 14:07 46.55273 14.71140 35090 ft 471 kts 134°
2026-04-14 14:08 46.50928 14.78276 35085 ft 471 kts 134°
2026-04-14 14:08 46.46687 14.85566 35085 ft 473 kts 132°
2026-04-14 14:09 46.42489 14.92938 35101 ft 474 kts 132°
2026-04-14 14:09 46.38272 15.00288 35082 ft 475 kts 132°
2026-04-14 14:10 46.34065 15.07569 35096 ft 475 kts 133°
2026-04-14 14:10 46.29807 15.14904 35075 ft 474 kts 133°
2026-04-14 14:11 46.25559 15.22203 35091 ft 473 kts 133°
2026-04-14 14:11 46.21320 15.29469 35099 ft 473 kts 133°
2026-04-14 14:12 46.17071 15.36736 35074 ft 474 kts 133°
2026-04-14 14:12 46.12820 15.43985 35090 ft 473 kts 133°
2026-04-14 14:13 46.08567 15.51218 35091 ft 472 kts 133°
2026-04-14 14:13 46.04323 15.58421 35075 ft 472 kts 133°
2026-04-14 14:14 46.00077 15.65609 35103 ft 471 kts 133°
2026-04-14 14:14 45.95779 15.72680 35093 ft 470 kts 136°
2026-04-14 14:15 45.91164 15.79374 35096 ft 470 kts 138°
2026-04-14 14:15 45.86494 15.86005 35074 ft 471 kts 138°
2026-04-14 14:16 45.81847 15.92649 35077 ft 471 kts 137°
2026-04-14 14:16 45.77243 15.99262 35074 ft 472 kts 137°
2026-04-14 14:17 45.70329 16.09189 35073 ft 472 kts 137°
2026-04-14 14:17 45.65638 16.15902 35072 ft 473 kts 137°
2026-04-14 14:18 45.60974 16.22557 35072 ft 473 kts 137°
2026-04-14 14:18 45.56309 16.29196 35073 ft 474 kts 137°
2026-04-14 14:19 45.51664 16.35790 35065 ft 474 kts 137°
2026-04-14 14:19 45.46959 16.42453 35062 ft 475 kts 137°
2026-04-14 14:20 45.42343 16.48974 35058 ft 476 kts 137°
2026-04-14 14:20 45.37569 16.55702 35057 ft 477 kts 137°
2026-04-14 14:21 45.32839 16.62350 35054 ft 478 kts 138°
2026-04-14 14:21 45.28093 16.69005 35052 ft 479 kts 138°
2026-04-14 14:22 45.23348 16.75641 35053 ft 479 kts 138°
2026-04-14 14:22 45.18623 16.82234 35048 ft 480 kts 138°
2026-04-14 14:23 45.13854 16.88872 35061 ft 481 kts 138°
2026-04-14 14:23 45.09074 16.95509 35053 ft 481 kts 138°
2026-04-14 14:24 45.04278 17.02150 35043 ft 482 kts 138°
2026-04-14 14:24 44.99473 17.08788 35040 ft 482 kts 138°
2026-04-14 14:25 44.94699 17.15368 35043 ft 482 kts 138°
2026-04-14 14:25 44.89892 17.21977 35053 ft 482 kts 138°
2026-04-14 14:26 44.85081 17.28573 35044 ft 483 kts 138°
2026-04-14 14:26 44.80262 17.35166 35048 ft 483 kts 138°
2026-04-14 14:27 44.75432 17.41756 35041 ft 483 kts 138°
2026-04-14 14:27 44.70624 17.48301 35033 ft 483 kts 138°
2026-04-14 14:28 44.65788 17.54868 35032 ft 483 kts 138°
2026-04-14 14:28 44.60962 17.61407 35026 ft 483 kts 138°
2026-04-14 14:29 44.56116 17.67954 35020 ft 482 kts 138°
2026-04-14 14:29 44.51309 17.74434 35017 ft 481 kts 138°
2026-04-14 14:30 44.46459 17.80957 35026 ft 481 kts 138°
2026-04-14 14:30 44.41622 17.87446 35022 ft 482 kts 138°
2026-04-14 14:31 44.36816 17.93878 35020 ft 483 kts 138°
2026-04-14 14:31 44.31947 18.00376 35009 ft 484 kts 138°
2026-04-14 14:32 44.27072 18.06870 35016 ft 484 kts 138°
2026-04-14 14:32 44.22193 18.13354 35021 ft 484 kts 138°
2026-04-14 14:33 44.17303 18.19836 35019 ft 485 kts 138°
2026-04-14 14:33 44.12410 18.26306 35022 ft 485 kts 138°
2026-04-14 14:34 44.05059 18.35997 35023 ft 484 kts 138°
2026-04-14 14:35 44.00158 18.42437 35022 ft 485 kts 139°
2026-04-14 14:35 43.95256 18.48865 35020 ft 485 kts 139°
2026-04-14 14:36 43.91174 18.54207 35025 ft 484 kts 139°
2026-04-14 14:36 43.85479 18.61640 35024 ft 484 kts 139°
2026-04-14 14:37 43.80554 18.68052 35021 ft 485 kts 139°
2026-04-14 14:37 43.75639 18.74437 35020 ft 485 kts 139°
2026-04-14 14:38 43.70713 18.80820 35022 ft 485 kts 139°
2026-04-14 14:38 43.65789 18.87184 35016 ft 485 kts 139°
2026-04-14 14:39 43.60853 18.93549 35033 ft 485 kts 139°
2026-04-14 14:39 43.55942 18.99869 35032 ft 486 kts 139°
2026-04-14 14:40 43.50981 19.06238 35019 ft 487 kts 139°
2026-04-14 14:40 43.46001 19.12614 35018 ft 488 kts 140°
2026-04-14 14:41 43.41023 19.18974 35040 ft 488 kts 140°
2026-04-14 14:41 43.36899 19.24232 35031 ft 489 kts 140°
2026-04-14 14:42 43.31878 19.30620 35014 ft 489 kts 140°
2026-04-14 14:42 43.26873 19.36971 35036 ft 490 kts 140°
2026-04-14 14:43 43.21869 19.43308 35033 ft 490 kts 140°
2026-04-14 14:43 43.16848 19.49650 35039 ft 490 kts 141°
2026-04-14 14:44 43.11823 19.55982 35036 ft 491 kts 141°
2026-04-14 14:44 43.06800 19.62299 35038 ft 491 kts 141°
2026-04-14 14:45 43.01792 19.68580 35044 ft 491 kts 141°
2026-04-14 14:45 42.96754 19.74886 35039 ft 491 kts 141°
2026-04-14 14:46 42.91707 19.81189 35044 ft 492 kts 141°
2026-04-14 14:46 42.86667 19.87468 35045 ft 492 kts 141°
2026-04-14 14:47 42.81596 19.93772 35053 ft 493 kts 141°
2026-04-14 14:47 42.76518 20.00069 35058 ft 494 kts 141°
2026-04-14 14:48 42.71813 20.06929 35057 ft 498 kts 132°
2026-04-14 14:48 42.67506 20.14212 35066 ft 499 kts 133°
2026-04-14 14:49 42.63099 20.21525 35057 ft 499 kts 133°
2026-04-14 14:49 42.58678 20.28792 35043 ft 498 kts 133°
2026-04-14 14:50 42.54262 20.36030 35051 ft 499 kts 134°
2026-04-14 14:50 42.49823 20.43287 35062 ft 500 kts 134°
2026-04-14 14:51 42.45387 20.50527 35047 ft 501 kts 134°
2026-04-14 14:51 42.40911 20.57817 35061 ft 502 kts 134°
2026-04-14 14:52 42.36441 20.65080 35060 ft 503 kts 134°
2026-04-14 14:52 42.31993 20.72286 35064 ft 503 kts 134°
2026-04-14 14:53 42.27469 20.79600 35069 ft 503 kts 134°
2026-04-14 14:53 42.23004 20.86803 35078 ft 503 kts 135°
2026-04-14 14:54 42.18509 20.94035 35075 ft 503 kts 135°
2026-04-14 14:54 42.14017 21.01246 35085 ft 503 kts 135°
2026-04-14 14:55 42.09356 21.08252 35072 ft 496 kts 142°
2026-04-14 14:55 42.04303 21.14536 35077 ft 495 kts 143°
2026-04-14 14:56 41.96813 21.23942 35084 ft 496 kts 143°
2026-04-14 14:56 41.91725 21.30368 35096 ft 496 kts 143°
2026-04-14 14:57 41.86711 21.36686 35103 ft 496 kts 143°
2026-04-14 14:57 41.81645 21.43051 35093 ft 497 kts 143°
2026-04-14 14:58 41.76594 21.49387 35091 ft 497 kts 144°
2026-04-14 14:58 41.71552 21.55696 35089 ft 497 kts 144°
2026-04-14 14:59 41.66507 21.61990 35100 ft 495 kts 144°
2026-04-14 14:59 41.61467 21.68267 35092 ft 495 kts 144°
2026-04-14 15:00 41.56412 21.74548 35101 ft 494 kts 144°
2026-04-14 15:00 41.51414 21.80747 35094 ft 493 kts 145°
2026-04-14 15:01 41.46375 21.86977 35095 ft 492 kts 145°
2026-04-14 15:01 41.41348 21.93180 35121 ft 492 kts 145°
2026-04-14 15:02 41.36326 21.99365 35130 ft 492 kts 145°
2026-04-14 15:02 41.31282 22.05562 35130 ft 494 kts 146°
2026-04-14 15:03 41.26220 22.11770 35142 ft 494 kts 146°
2026-04-14 15:03 41.21175 22.17945 35143 ft 495 kts 146°
2026-04-14 15:04 41.16083 22.24145 35154 ft 495 kts 147°
2026-04-14 15:04 41.10821 22.29853 35156 ft 491 kts 150°
2026-04-14 15:05 41.05480 22.35560 35157 ft 491 kts 150°
2026-04-14 15:05 41.00217 22.41206 35157 ft 489 kts 150°
2026-04-14 15:06 40.94927 22.46878 35167 ft 487 kts 150°
2026-04-14 15:06 40.89673 22.52502 35167 ft 486 kts 150°
2026-04-14 15:07 40.84384 22.58150 35173 ft 486 kts 150°
2026-04-14 15:07 40.79158 22.63718 35172 ft 486 kts 150°
2026-04-14 15:08 40.73930 22.69276 35174 ft 485 kts 150°
2026-04-14 15:08 40.68624 22.74906 35172 ft 485 kts 150°
2026-04-14 15:09 40.63360 22.80480 35177 ft 484 kts 150°
2026-04-14 15:09 40.58149 22.85986 35181 ft 484 kts 150°
2026-04-14 15:10 40.52899 22.91524 35174 ft 484 kts 150°
2026-04-14 15:10 40.47645 22.97054 35193 ft 483 kts 150°
2026-04-14 15:11 40.42664 23.03105 35199 ft 494 kts 141°
2026-04-14 15:11 40.37971 23.09729 35180 ft 495 kts 142°
2026-04-14 15:12 40.33248 23.16301 35180 ft 495 kts 142°
2026-04-14 15:12 40.28492 23.22852 35179 ft 496 kts 142°
2026-04-14 15:13 40.23733 23.29383 35174 ft 496 kts 142°
2026-04-14 15:13 40.18959 23.35923 35167 ft 497 kts 142°
2026-04-14 15:14 40.14180 23.42459 35172 ft 497 kts 142°
2026-04-14 15:14 40.09429 23.48942 35174 ft 497 kts 142°
2026-04-14 15:15 40.05008 23.54963 35172 ft 497 kts 142°
2026-04-14 15:15 40.00303 23.61358 35175 ft 498 kts 142°
2026-04-14 15:16 39.95504 23.67866 35167 ft 498 kts 142°
2026-04-14 15:16 39.90670 23.74408 35180 ft 498 kts 142°
2026-04-14 15:17 39.85951 23.80781 35170 ft 499 kts 142°
2026-04-14 15:17 39.81162 23.87234 35177 ft 500 kts 142°
2026-04-14 15:18 39.76418 23.93612 35174 ft 500 kts 142°
2026-04-14 15:18 39.71541 24.00156 35167 ft 501 kts 142°
2026-04-14 15:19 39.66700 24.06638 35167 ft 501 kts 142°
2026-04-14 15:19 39.61828 24.13147 35170 ft 501 kts 142°
2026-04-14 15:20 39.56971 24.19623 35170 ft 501 kts 142°
2026-04-14 15:20 39.52134 24.26058 35172 ft 501 kts 142°
2026-04-14 15:21 39.47387 24.32360 35172 ft 500 kts 142°
2026-04-14 15:21 39.42529 24.38797 35165 ft 500 kts 142°
2026-04-14 15:22 39.37670 24.45223 35168 ft 500 kts 142°
2026-04-14 15:22 39.32808 24.51643 35172 ft 500 kts 142°
2026-04-14 15:23 39.28092 24.57962 35169 ft 501 kts 141°
2026-04-14 15:23 39.24052 24.63395 35171 ft 501 kts 141°
2026-04-14 15:24 39.19241 24.69839 35168 ft 502 kts 141°
2026-04-14 15:24 39.13570 24.77407 35168 ft 503 kts 141°
2026-04-14 15:25 39.09522 24.82788 35176 ft 504 kts 142°
2026-04-14 15:25 39.04581 24.89213 35173 ft 504 kts 142°
2026-04-14 15:26 38.99622 24.95607 35173 ft 506 kts 142°
2026-04-14 15:26 38.94643 25.02032 35173 ft 507 kts 142°
2026-04-14 15:27 38.89655 25.08469 35174 ft 508 kts 142°
2026-04-14 15:27 38.84657 25.14909 35177 ft 510 kts 142°
2026-04-14 15:28 38.79669 25.21321 35176 ft 511 kts 142°
2026-04-14 15:28 38.74651 25.27757 35172 ft 512 kts 142°
2026-04-14 15:29 38.69606 25.34215 35175 ft 512 kts 142°
2026-04-14 15:29 38.64552 25.40670 35177 ft 513 kts 142°
2026-04-14 15:30 38.59504 25.47105 35177 ft 513 kts 142°
2026-04-14 15:30 38.54455 25.53525 35171 ft 514 kts 142°
2026-04-14 15:31 38.49358 25.59995 35187 ft 514 kts 142°
2026-04-14 15:31 38.44276 25.66434 35185 ft 514 kts 142°
2026-04-14 15:32 38.39228 25.72817 35187 ft 514 kts 142°
2026-04-14 15:32 38.34139 25.79254 35192 ft 514 kts 142°
2026-04-14 15:33 38.29078 25.85686 35197 ft 513 kts 142°
2026-04-14 15:33 38.23990 25.92019 35192 ft 509 kts 146°
2026-04-14 15:34 38.18671 25.97856 35201 ft 508 kts 147°
2026-04-14 15:34 38.13314 26.03738 35190 ft 508 kts 146°
2026-04-14 15:35 38.07986 26.09619 35187 ft 508 kts 146°
2026-04-14 15:35 38.02643 26.15501 35190 ft 508 kts 146°
2026-04-14 15:36 37.97305 26.21363 35188 ft 509 kts 146°
2026-04-14 15:36 37.91948 26.27241 35191 ft 510 kts 146°
2026-04-14 15:37 37.86568 26.33132 35190 ft 510 kts 146°
2026-04-14 15:37 37.81227 26.38980 35192 ft 512 kts 146°
2026-04-14 15:38 37.75844 26.44875 35188 ft 512 kts 146°
2026-04-14 15:38 37.70442 26.50779 35191 ft 513 kts 146°
2026-04-14 15:39 37.65031 26.56668 35194 ft 514 kts 146°
2026-04-14 15:39 37.59604 26.62541 35195 ft 514 kts 146°
2026-04-14 15:40 37.54163 26.68422 35198 ft 515 kts 146°
2026-04-14 15:40 37.48718 26.74301 35198 ft 516 kts 146°
2026-04-14 15:41 37.43275 26.80168 35195 ft 516 kts 146°
2026-04-14 15:41 37.37857 26.86159 35179 ft 520 kts 143°
2026-04-14 15:42 37.32655 26.92401 35189 ft 521 kts 142°
2026-04-14 15:42 37.27415 26.98703 35187 ft 521 kts 143°
2026-04-14 15:43 37.22150 27.04993 35183 ft 522 kts 143°
2026-04-14 15:43 37.16891 27.11247 35187 ft 522 kts 143°
2026-04-14 15:44 37.11629 27.17490 35188 ft 522 kts 143°
2026-04-14 15:44 37.06349 27.23743 35189 ft 523 kts 143°
2026-04-14 15:45 37.01045 27.30014 35188 ft 523 kts 143°
2026-04-14 15:45 36.95756 27.36250 35179 ft 523 kts 143°
2026-04-14 15:46 36.90469 27.42474 35182 ft 523 kts 143°
2026-04-14 15:46 36.85140 27.48736 35185 ft 523 kts 144°
2026-04-14 15:47 36.79867 27.54919 35185 ft 523 kts 144°
2026-04-14 15:47 36.74571 27.61118 35185 ft 523 kts 143°
2026-04-14 15:48 36.69240 27.67344 35175 ft 524 kts 144°
2026-04-14 15:48 36.63914 27.73551 35187 ft 524 kts 144°
2026-04-14 15:49 36.58603 27.79730 35188 ft 523 kts 143°
2026-04-14 15:49 36.53284 27.85907 35180 ft 523 kts 144°
2026-04-14 15:50 36.47983 27.92049 35190 ft 522 kts 144°
2026-04-14 15:50 36.42665 27.98199 35182 ft 523 kts 144°
2026-04-14 15:51 36.37339 28.04350 35188 ft 523 kts 144°
2026-04-14 15:51 36.32058 28.10477 35188 ft 524 kts 142°
2026-04-14 15:52 36.26859 28.16929 35185 ft 525 kts 141°
2026-04-14 15:52 36.21753 28.23395 35187 ft 525 kts 141°
2026-04-14 15:53 36.16609 28.29841 35189 ft 524 kts 141°
2026-04-14 15:53 36.11493 28.36187 35196 ft 524 kts 141°
2026-04-14 15:54 36.03742 28.45758 35199 ft 524 kts 141°
2026-04-14 15:55 35.98582 28.52119 35195 ft 524 kts 141°
2026-04-14 15:55 35.93418 28.58475 35199 ft 524 kts 141°
2026-04-14 15:56 35.88246 28.64829 35196 ft 524 kts 141°
2026-04-14 15:56 35.83109 28.71127 35193 ft 523 kts 141°
2026-04-14 15:57 35.77940 28.77452 35192 ft 523 kts 141°
2026-04-14 15:57 35.73644 28.82699 35189 ft 523 kts 141°
2026-04-14 15:58 35.67598 28.90069 35185 ft 523 kts 141°
2026-04-14 15:58 35.62416 28.96373 35184 ft 523 kts 141°
2026-04-14 15:59 35.57276 29.02615 35184 ft 523 kts 141°
2026-04-14 15:59 35.52089 29.08900 35187 ft 523 kts 141°
2026-04-14 16:00 35.46889 29.15190 35182 ft 524 kts 141°
2026-04-14 16:00 35.41703 29.21450 35180 ft 525 kts 141°
2026-04-14 16:01 35.36488 29.27734 35183 ft 525 kts 141°
2026-04-14 16:01 35.31296 29.33978 35182 ft 526 kts 141°
2026-04-14 16:02 35.26068 29.40254 35183 ft 526 kts 140°
2026-04-14 16:02 35.20877 29.46473 35182 ft 525 kts 140°
2026-04-14 16:03 35.15654 29.52719 35182 ft 525 kts 140°
2026-04-14 16:03 35.10430 29.58955 35169 ft 524 kts 140°
2026-04-14 16:04 35.05225 29.65156 35185 ft 523 kts 140°
2026-04-14 16:04 35.00003 29.71366 35187 ft 523 kts 140°
2026-04-14 16:05 34.94823 29.77514 35174 ft 522 kts 140°
2026-04-14 16:05 34.89607 29.83693 35172 ft 523 kts 140°
2026-04-14 16:06 34.84384 29.89870 35170 ft 523 kts 140°
2026-04-14 16:06 34.79159 29.96039 35180 ft 523 kts 140°
2026-04-14 16:07 34.74979 30.01405 35169 ft 528 kts 132°
2026-04-14 16:07 34.70096 30.09990 35183 ft 531 kts 127°
2026-04-14 16:08 34.65953 30.17426 35163 ft 532 kts 127°
2026-04-14 16:08 34.61805 30.24746 35176 ft 532 kts 127°
2026-04-14 16:09 34.57553 30.32212 35163 ft 533 kts 127°
2026-04-14 16:09 34.53337 30.39608 35170 ft 534 kts 127°
2026-04-14 16:10 34.49099 30.47034 35166 ft 535 kts 127°
2026-04-14 16:10 34.44863 30.54445 35159 ft 536 kts 127°
2026-04-14 16:11 34.41329 30.60613 35161 ft 537 kts 127°
2026-04-14 16:11 34.37054 30.68063 35159 ft 538 kts 127°
2026-04-14 16:12 34.32088 30.76696 35158 ft 538 kts 127°
2026-04-14 16:12 34.28527 30.82876 35160 ft 538 kts 127°
2026-04-14 16:13 34.24242 30.90299 35162 ft 537 kts 127°
2026-04-14 16:13 34.19955 30.97694 35163 ft 537 kts 127°
2026-04-14 16:14 34.15652 31.05098 35163 ft 537 kts 127°
2026-04-14 16:14 34.11361 31.12469 35159 ft 537 kts 127°
2026-04-14 16:15 34.07091 31.19793 35155 ft 537 kts 127°
2026-04-14 16:15 34.02775 31.27180 35151 ft 537 kts 127°
2026-04-14 16:16 33.98468 31.34538 35153 ft 538 kts 127°
2026-04-14 16:16 33.94157 31.41887 35156 ft 538 kts 127°
2026-04-14 16:17 33.89823 31.49261 35149 ft 538 kts 127°
2026-04-14 16:17 33.85494 31.56610 35149 ft 539 kts 127°
2026-04-14 16:18 33.81152 31.63971 35139 ft 539 kts 127°
2026-04-14 16:18 33.76868 31.71289 35141 ft 539 kts 126°
2026-04-14 16:19 33.72623 31.78728 35144 ft 539 kts 126°
2026-04-14 16:19 33.68387 31.86164 35142 ft 539 kts 126°
2026-04-14 16:20 33.64121 31.93605 35139 ft 539 kts 126°
2026-04-14 16:20 33.59872 32.00983 35136 ft 539 kts 126°
2026-04-14 16:21 33.55593 32.08397 35136 ft 539 kts 126°
2026-04-14 16:21 33.51321 32.15786 35134 ft 540 kts 126°
2026-04-14 16:22 33.47034 32.23187 35134 ft 540 kts 126°
2026-04-14 16:22 33.42774 32.30528 35135 ft 540 kts 126°
2026-04-14 16:23 33.38481 32.37909 35133 ft 540 kts 126°
2026-04-14 16:23 33.34179 32.45292 35127 ft 540 kts 126°
2026-04-14 16:24 33.29882 32.52652 35122 ft 540 kts 126°
2026-04-14 16:24 33.25596 32.59977 35125 ft 540 kts 126°
2026-04-14 16:25 33.21288 32.67327 35113 ft 540 kts 126°
2026-04-14 16:25 33.16976 32.74669 35118 ft 539 kts 126°
2026-04-14 16:26 33.12657 32.82012 35114 ft 539 kts 126°
2026-04-14 16:26 33.08340 32.89336 35114 ft 539 kts 126°
2026-04-14 16:27 33.04101 32.96538 35113 ft 539 kts 126°
2026-04-14 16:27 32.99750 33.03928 35110 ft 539 kts 126°
2026-04-14 16:28 32.95463 33.11196 35110 ft 539 kts 126°
2026-04-14 16:28 32.91126 33.18532 35102 ft 539 kts 126°
2026-04-14 16:29 32.86805 33.25824 35095 ft 538 kts 126°
2026-04-14 16:29 32.82512 33.33057 35102 ft 538 kts 126°
2026-04-14 16:30 32.78213 33.40284 35099 ft 538 kts 126°
2026-04-14 16:30 32.73867 33.47576 35096 ft 537 kts 126°
2026-04-14 16:31 32.69553 33.54803 35096 ft 536 kts 125°
2026-04-14 16:31 32.65241 33.62011 35096 ft 536 kts 125°
2026-04-14 16:32 32.60908 33.69240 34985 ft 535 kts 126°
2026-04-14 16:32 32.56637 33.76353 35063 ft 532 kts 125°
2026-04-14 16:33 32.52315 33.83537 35076 ft 531 kts 125°
2026-04-14 16:33 32.48012 33.90676 35086 ft 532 kts 125°
2026-04-14 16:34 32.43738 33.97755 35083 ft 533 kts 125°
2026-04-14 16:34 32.39416 34.04901 35074 ft 533 kts 125°
2026-04-14 16:35 32.35543 34.12359 35060 ft 532 kts 114°
2026-04-14 16:35 32.32329 34.20246 35064 ft 532 kts 115°
2026-04-14 16:36 32.28996 34.28062 35058 ft 532 kts 115°
2026-04-14 16:36 32.25642 34.35892 35051 ft 532 kts 115°
2026-04-14 16:37 32.22357 34.43597 35048 ft 531 kts 115°
2026-04-14 16:37 32.19034 34.51382 35043 ft 530 kts 115°
2026-04-14 16:38 32.16244 34.59443 35032 ft 527 kts 104°
2026-04-14 16:38 32.14703 34.67857 35035 ft 523 kts 97°
2026-04-14 16:39 32.13389 34.76301 35027 ft 524 kts 98°
2026-04-14 16:39 32.11987 34.84753 35027 ft 524 kts 98°
2026-04-14 16:40 32.10369 34.93078 35011 ft 527 kts 106°
2026-04-14 16:40 32.07920 35.01289 35028 ft 527 kts 107°
2026-04-14 16:41 32.05534 35.09466 35032 ft 528 kts 107°
2026-04-14 16:41 32.03197 35.17616 35043 ft 528 kts 107°
2026-04-14 16:42 32.00764 35.25801 35050 ft 528 kts 108°
2026-04-14 16:42 31.98382 35.33971 35058 ft 528 kts 107°
2026-04-14 16:43 31.96053 35.42175 35061 ft 528 kts 107°
2026-04-14 16:43 31.93992 35.50412 35072 ft 524 kts 98°
2026-04-14 16:44 31.92936 35.58856 35085 ft 522 kts 98°
2026-04-14 16:44 31.91050 35.67132 35118 ft 527 kts 108°
2026-04-14 16:45 31.86378 35.78906 35160 ft 531 kts 115°
2026-04-14 16:45 31.83108 35.86736 35145 ft 532 kts 115°
2026-04-14 16:46 31.79886 35.94576 35161 ft 532 kts 115°
2026-04-14 16:46 31.76686 36.02412 35158 ft 532 kts 115°
2026-04-14 16:47 31.73481 36.10248 35159 ft 531 kts 115°
2026-04-14 16:47 31.70275 36.18061 35156 ft 531 kts 115°
2026-04-14 16:48 31.67079 36.25826 35158 ft 530 kts 115°
2026-04-14 16:48 31.63844 36.33669 35156 ft 530 kts 115°
2026-04-14 16:49 31.61169 36.40139 35156 ft 530 kts 115°
2026-04-14 16:49 31.57429 36.49171 35152 ft 529 kts 115°
2026-04-14 16:50 31.54202 36.56944 35145 ft 529 kts 115°
2026-04-14 16:50 31.50975 36.64702 35141 ft 529 kts 115°
2026-04-14 16:51 31.47772 36.72387 35133 ft 530 kts 115°
2026-04-14 16:51 31.44491 36.80239 35131 ft 530 kts 115°
2026-04-14 16:52 31.41794 36.86682 35129 ft 530 kts 115°
2026-04-14 16:52 31.38544 36.94431 35122 ft 531 kts 115°
2026-04-14 16:53 31.34732 37.03500 35109 ft 531 kts 115°
2026-04-14 16:53 31.32025 37.09928 35110 ft 531 kts 115°
2026-04-14 16:54 31.28220 37.18944 35103 ft 530 kts 115°
2026-04-14 16:54 31.25579 37.25394 35105 ft 529 kts 111°
2026-04-14 16:55 31.23162 37.33518 35110 ft 527 kts 107°
2026-04-14 16:55 31.20785 37.41633 35116 ft 527 kts 108°
2026-04-14 16:56 31.18373 37.49645 35115 ft 526 kts 108°
2026-04-14 16:56 31.15934 37.57726 35128 ft 526 kts 108°
2026-04-14 16:57 31.13497 37.65767 35131 ft 525 kts 108°
2026-04-14 16:57 31.11047 37.73793 35131 ft 525 kts 108°
2026-04-14 16:58 31.08587 37.81830 35132 ft 525 kts 108°
2026-04-14 16:58 31.06135 37.89831 35134 ft 524 kts 108°
2026-04-14 16:59 31.03677 37.97836 35137 ft 524 kts 108°
2026-04-14 16:59 31.01215 38.05832 35139 ft 523 kts 108°
2026-04-14 17:00 30.98767 38.13761 35145 ft 523 kts 108°
2026-04-14 17:00 30.96292 38.21762 35146 ft 523 kts 108°
2026-04-14 17:01 30.93820 38.29730 35148 ft 523 kts 108°
2026-04-14 17:01 30.91347 38.37682 35153 ft 522 kts 108°
2026-04-14 17:02 30.88871 38.45624 35158 ft 522 kts 108°
2026-04-14 17:02 30.86387 38.53572 35159 ft 522 kts 108°
2026-04-14 17:03 30.83902 38.61505 35167 ft 521 kts 108°
2026-04-14 17:03 30.81427 38.69388 35153 ft 521 kts 108°
2026-04-14 17:04 30.78906 38.77318 35161 ft 521 kts 110°
2026-04-14 17:04 30.75795 38.84900 35172 ft 521 kts 116°
2026-04-14 17:05 30.72494 38.92394 35169 ft 521 kts 116°
2026-04-14 17:05 30.69230 38.99914 35175 ft 520 kts 116°
2026-04-14 17:06 30.66023 39.07381 35181 ft 520 kts 115°
2026-04-14 17:06 30.62784 39.14925 35187 ft 520 kts 116°
2026-04-14 17:07 30.59544 39.22448 35497 ft 523 kts 116°
2026-04-14 17:07 30.57906 39.26241 35809 ft 522 kts 116°
2026-04-14 17:07 30.56318 39.29916 36123 ft 521 kts 116°
2026-04-14 17:08 30.54657 39.33755 36413 ft 520 kts 115°
2026-04-14 17:08 30.53038 39.37494 36664 ft 520 kts 115°
2026-04-14 17:08 30.51412 39.41246 36893 ft 520 kts 115°
2026-04-14 17:08 30.49776 39.45017 37106 ft 521 kts 115°
2026-04-14 17:09 30.46512 39.52531 37220 ft 522 kts 116°
2026-04-14 17:09 30.43263 39.59996 37222 ft 519 kts 116°
2026-04-14 17:10 30.40040 39.67458 37210 ft 516 kts 114°
2026-04-14 17:10 30.37046 39.75011 37216 ft 515 kts 113°
2026-04-14 17:11 30.34100 39.82591 37225 ft 515 kts 113°
2026-04-14 17:11 30.31138 39.90093 37227 ft 515 kts 113°
2026-04-14 17:12 30.28131 39.97629 37221 ft 516 kts 114°
2026-04-14 17:12 30.25107 40.05183 37223 ft 517 kts 114°
2026-04-14 17:13 30.22090 40.12714 37222 ft 517 kts 114°
2026-04-14 17:13 30.19062 40.20259 37212 ft 517 kts 114°
2026-04-14 17:14 30.16034 40.27791 37215 ft 516 kts 114°
2026-04-14 17:14 30.13003 40.35316 37220 ft 516 kts 114°
2026-04-14 17:15 30.09980 40.42793 37220 ft 515 kts 114°
2026-04-14 17:15 30.06936 40.50277 37214 ft 515 kts 115°
2026-04-14 17:16 30.03903 40.57720 37212 ft 514 kts 115°
2026-04-14 17:16 30.00862 40.65176 37220 ft 514 kts 115°
2026-04-14 17:17 29.97805 40.72656 37216 ft 514 kts 115°
2026-04-14 17:17 29.94744 40.80133 37208 ft 514 kts 115°
2026-04-14 17:18 29.91688 40.87581 37217 ft 514 kts 115°
2026-04-14 17:18 29.88641 40.94994 37220 ft 515 kts 115°
2026-04-14 17:19 29.85574 41.02440 37209 ft 515 kts 115°
2026-04-14 17:19 29.82500 41.09891 37216 ft 515 kts 116°
2026-04-14 17:20 29.79410 41.17364 37214 ft 515 kts 116°
2026-04-14 17:20 29.76349 41.24756 37212 ft 515 kts 116°
2026-04-14 17:21 29.73312 41.32222 37210 ft 515 kts 112°
2026-04-14 17:21 29.70855 41.39959 37203 ft 515 kts 109°
2026-04-14 17:22 29.68512 41.47754 37195 ft 515 kts 109°
2026-04-14 17:22 29.66133 41.55516 37198 ft 515 kts 110°
2026-04-14 17:23 29.63709 41.63283 37197 ft 515 kts 110°
2026-04-14 17:23 29.61284 41.70997 37194 ft 515 kts 110°
2026-04-14 17:24 29.58846 41.78743 37194 ft 515 kts 110°
2026-04-14 17:24 29.56399 41.86507 37185 ft 515 kts 110°
2026-04-14 17:25 29.53956 41.94243 37178 ft 515 kts 111°
2026-04-14 17:25 29.51500 42.02003 37175 ft 515 kts 111°
2026-04-14 17:26 29.49042 42.09751 37174 ft 515 kts 111°
2026-04-14 17:26 29.46600 42.17428 37171 ft 515 kts 111°
2026-04-14 17:27 29.44139 42.25149 37170 ft 515 kts 111°
2026-04-14 17:27 29.41677 42.32856 37165 ft 515 kts 111°
2026-04-14 17:28 29.39221 42.40527 37163 ft 515 kts 111°
2026-04-14 17:28 29.36726 42.48301 37156 ft 515 kts 111°
2026-04-14 17:29 29.34260 42.55968 37166 ft 515 kts 112°
2026-04-14 17:29 29.31782 42.63656 37155 ft 515 kts 112°
2026-04-14 17:30 29.29294 42.71354 37150 ft 515 kts 112°
2026-04-14 17:30 29.26800 42.79055 37150 ft 515 kts 112°
2026-04-14 17:31 29.24312 42.86722 37144 ft 515 kts 112°
2026-04-14 17:31 29.21810 42.94415 37140 ft 514 kts 112°
2026-04-14 17:32 29.19303 43.02110 37138 ft 514 kts 112°
2026-04-14 17:32 29.16801 43.09716 37131 ft 514 kts 115°
2026-04-14 17:33 29.13515 43.16988 37136 ft 509 kts 124°
2026-04-14 17:34 29.08088 43.27397 37130 ft 510 kts 123°
2026-04-14 17:34 29.04511 43.34394 37130 ft 510 kts 123°
2026-04-14 17:35 29.00927 43.41415 37124 ft 510 kts 124°
2026-04-14 17:35 28.97357 43.48384 37123 ft 509 kts 124°
2026-04-14 17:36 28.93779 43.55347 37122 ft 509 kts 124°
2026-04-14 17:36 28.90178 43.62319 37122 ft 508 kts 124°
2026-04-14 17:37 28.86595 43.69243 37119 ft 507 kts 125°
2026-04-14 17:37 28.83007 43.76170 37118 ft 507 kts 125°
2026-04-14 17:38 28.79423 43.83080 37120 ft 507 kts 125°
2026-04-14 17:38 28.75836 43.89985 37114 ft 507 kts 125°
2026-04-14 17:39 28.72225 43.96924 37110 ft 508 kts 126°
2026-04-14 17:39 28.68625 44.03830 37127 ft 508 kts 126°
2026-04-14 17:40 28.65606 44.09613 37104 ft 509 kts 126°
2026-04-14 17:40 28.61991 44.16527 37098 ft 510 kts 126°
2026-04-14 17:41 28.57752 44.24619 37109 ft 511 kts 126°
2026-04-14 17:41 28.54705 44.30428 37104 ft 511 kts 126°
2026-04-14 17:42 28.51063 44.37358 37100 ft 511 kts 127°
2026-04-14 17:42 28.47421 44.44278 37102 ft 511 kts 127°
2026-04-14 17:43 28.43758 44.51226 37103 ft 511 kts 127°
2026-04-14 17:43 28.40101 44.58152 37099 ft 511 kts 127°
2026-04-14 17:44 28.36442 44.65070 37093 ft 511 kts 128°
2026-04-14 17:44 28.32778 44.71987 37093 ft 510 kts 128°
2026-04-14 17:45 28.29142 44.78839 37093 ft 510 kts 128°
2026-04-14 17:45 28.25469 44.85748 37092 ft 510 kts 128°
2026-04-14 17:46 28.21806 44.92629 37094 ft 509 kts 129°
2026-04-14 17:46 28.18143 44.99500 37092 ft 509 kts 129°
2026-04-14 17:47 28.14476 45.06369 37088 ft 509 kts 129°
2026-04-14 17:47 28.10823 45.13207 37087 ft 510 kts 129°
2026-04-14 17:48 28.07153 45.20082 37085 ft 510 kts 129°
2026-04-14 17:48 28.03480 45.26953 37085 ft 510 kts 129°
2026-04-14 17:49 27.99810 45.33807 37084 ft 509 kts 129°
2026-04-14 17:49 27.96135 45.40657 37083 ft 509 kts 129°
2026-04-14 17:50 27.92454 45.47511 37086 ft 508 kts 129°
2026-04-14 17:50 27.89002 45.54448 37084 ft 516 kts 122°
2026-04-14 17:51 27.86609 45.62195 37083 ft 529 kts 110°
2026-04-14 17:51 27.85016 45.70317 37085 ft 530 kts 109°
2026-04-14 17:52 27.83397 45.78430 37093 ft 530 kts 109°
2026-04-14 17:52 27.81718 45.86576 37091 ft 531 kts 110°
2026-04-14 17:53 27.80029 45.94684 37096 ft 532 kts 110°
2026-04-14 17:53 27.78328 46.02840 37096 ft 533 kts 110°
2026-04-14 17:54 27.76626 46.10991 37099 ft 534 kts 110°
2026-04-14 17:54 27.74919 46.19144 37100 ft 535 kts 110°
2026-04-14 17:55 27.73201 46.27331 37102 ft 536 kts 110°
2026-04-14 17:55 27.71482 46.35541 37108 ft 537 kts 110°
2026-04-14 17:56 27.69762 46.43755 37108 ft 538 kts 110°
2026-04-14 17:56 27.68036 46.51968 37111 ft 539 kts 110°
2026-04-14 17:57 27.66311 46.60146 37112 ft 540 kts 110°
2026-04-14 17:57 27.64553 46.68449 37113 ft 541 kts 110°
2026-04-14 17:58 27.62814 46.76642 37115 ft 542 kts 110°
2026-04-14 17:58 27.61052 46.84917 37120 ft 543 kts 110°
2026-04-14 17:59 27.59281 46.93207 37116 ft 544 kts 110°
2026-04-14 17:59 27.57519 47.01435 37146 ft 544 kts 110°
2026-04-14 18:00 27.55719 47.09806 37148 ft 545 kts 110°
2026-04-14 18:00 27.53042 47.22219 37148 ft 545 kts 110°
2026-04-14 18:01 27.51242 47.30531 37153 ft 545 kts 110°
2026-04-14 18:01 27.49443 47.38812 37148 ft 545 kts 110°
2026-04-14 18:02 27.47633 47.47120 37146 ft 545 kts 110°
2026-04-14 18:02 27.45821 47.55414 37145 ft 545 kts 110°
2026-04-14 18:03 27.43962 47.63635 37146 ft 542 kts 113°
2026-04-14 18:03 27.41711 47.71648 37146 ft 539 kts 115°
2026-04-14 18:04 27.39371 47.79666 37148 ft 539 kts 114°
2026-04-14 18:04 27.37067 47.87695 37148 ft 540 kts 114°
2026-04-14 18:05 27.34774 47.95749 37145 ft 540 kts 114°
2026-04-14 18:05 27.32477 48.03795 37146 ft 540 kts 114°
2026-04-14 18:06 27.30192 48.11847 37140 ft 541 kts 113°
2026-04-14 18:06 27.28053 48.19943 37141 ft 542 kts 112°
2026-04-14 18:07 27.25936 48.28079 37145 ft 542 kts 112°
2026-04-14 18:07 27.23787 48.36229 37142 ft 543 kts 112°
2026-04-14 18:08 27.21617 48.44373 37137 ft 543 kts 112°
2026-04-14 18:08 27.19468 48.52414 37138 ft 543 kts 112°
2026-04-14 18:09 27.17284 48.60574 37128 ft 544 kts 112°
2026-04-14 18:09 27.15101 48.68714 37123 ft 544 kts 112°
2026-04-14 18:10 27.12912 48.76861 37115 ft 544 kts 112°
2026-04-14 18:10 27.10759 48.84943 37121 ft 545 kts 109°
2026-04-14 18:11 27.09442 48.93365 37116 ft 552 kts 97°
2026-04-14 18:11 27.09142 49.01980 37108 ft 553 kts 95°
2026-04-14 18:12 27.08804 49.10625 37108 ft 552 kts 96°
2026-04-14 18:12 27.08400 49.19226 37096 ft 552 kts 96°
2026-04-14 18:13 27.07993 49.27832 37084 ft 552 kts 96°
2026-04-14 18:13 27.07608 49.36387 37088 ft 551 kts 96°
2026-04-14 18:14 27.07206 49.45007 37083 ft 551 kts 96°
2026-04-14 18:14 27.06786 49.53580 37079 ft 550 kts 96°
2026-04-14 18:15 27.06367 49.62084 37077 ft 550 kts 96°
2026-04-14 18:15 27.05941 49.70676 37082 ft 550 kts 96°
2026-04-14 18:16 27.05512 49.79234 37084 ft 550 kts 96°
2026-04-14 18:16 27.05078 49.87802 37083 ft 550 kts 96°
2026-04-14 18:17 27.04641 49.96366 37084 ft 550 kts 95°
2026-04-14 18:17 27.04622 50.04950 37081 ft 551 kts 91°
2026-04-14 18:18 27.04719 50.13474 37079 ft 550 kts 91°
2026-04-14 18:18 27.04781 50.22077 37079 ft 549 kts 92°
2026-04-14 18:19 27.04092 50.30565 37079 ft 543 kts 104°
2026-04-14 18:19 27.02129 50.38691 37077 ft 539 kts 110°
2026-04-14 18:20 27.00116 50.46784 37064 ft 539 kts 109°
2026-04-14 18:20 26.98154 50.54914 37064 ft 538 kts 110°
2026-04-14 18:21 26.95512 50.62681 37069 ft 531 kts 119°
2026-04-14 18:21 26.92540 50.70221 37056 ft 531 kts 118°
2026-04-14 18:22 26.89631 50.77837 37049 ft 531 kts 117°
2026-04-14 18:22 26.86734 50.85427 37053 ft 531 kts 118°
2026-04-14 18:23 26.83801 50.93040 37049 ft 530 kts 118°
2026-04-14 18:23 26.80899 51.00588 37045 ft 529 kts 117°
2026-04-14 18:24 26.77995 51.08170 37044 ft 529 kts 117°
2026-04-14 18:24 26.75406 51.15880 37045 ft 530 kts 113°
2026-04-14 18:25 26.73372 51.22344 37040 ft 530 kts 113°
2026-04-14 18:25 26.70893 51.30138 37041 ft 529 kts 114°
2026-04-14 18:26 26.68404 51.37872 37036 ft 529 kts 114°
2026-04-14 18:26 26.65912 51.45602 37034 ft 529 kts 114°
2026-04-14 18:27 26.63425 51.53338 37033 ft 528 kts 113°
2026-04-14 18:27 26.60535 51.62325 37028 ft 528 kts 113°
2026-04-14 18:28 26.58461 51.68762 37024 ft 528 kts 113°
2026-04-14 18:28 26.55958 51.76469 37022 ft 528 kts 114°
2026-04-14 18:29 26.53463 51.84203 37019 ft 528 kts 113°
2026-04-14 18:29 26.50958 51.91901 37019 ft 528 kts 114°
2026-04-14 18:30 26.48392 51.99564 37013 ft 528 kts 114°
2026-04-14 18:30 26.45828 52.07225 37003 ft 528 kts 114°
2026-04-14 18:31 26.43237 52.14981 37004 ft 529 kts 114°
2026-04-14 18:31 26.40659 52.22667 37004 ft 529 kts 114°
2026-04-14 18:32 26.38093 52.30299 37003 ft 529 kts 114°
2026-04-14 18:32 26.35491 52.38027 36996 ft 529 kts 114°
2026-04-14 18:33 26.32736 52.45554 36992 ft 527 kts 117°
2026-04-14 18:34 26.26890 52.60513 36980 ft 526 kts 117°
2026-04-14 18:34 26.24020 52.68008 36985 ft 525 kts 117°
2026-04-14 18:35 26.21153 52.75481 36974 ft 525 kts 117°
2026-04-14 18:35 26.18281 52.82966 36971 ft 524 kts 117°
2026-04-14 18:36 26.15415 52.90424 36974 ft 523 kts 117°
2026-04-14 18:36 26.12552 52.97859 36971 ft 522 kts 117°
2026-04-14 18:37 26.09696 53.05278 36970 ft 522 kts 116°
2026-04-14 18:37 26.06960 53.12699 36965 ft 521 kts 116°
2026-04-14 18:38 26.04244 53.20180 36967 ft 521 kts 116°
2026-04-14 18:38 26.01507 53.27645 36963 ft 520 kts 116°
2026-04-14 18:39 25.98764 53.35085 36966 ft 519 kts 116°
2026-04-14 18:39 25.96024 53.42504 36961 ft 518 kts 116°
2026-04-14 18:40 25.93311 53.49903 36958 ft 518 kts 114°
2026-04-14 18:40 25.91184 53.57554 36964 ft 520 kts 110°
2026-04-14 18:41 25.89166 53.65261 36954 ft 521 kts 110°
2026-04-14 18:41 25.87122 53.72942 36955 ft 521 kts 110°
2026-04-14 18:42 25.85030 53.80697 36953 ft 521 kts 111°
2026-04-14 18:42 25.82947 53.88379 36949 ft 522 kts 111°
2026-04-14 18:43 25.80833 53.96160 36948 ft 524 kts 111°
2026-04-14 18:43 25.78733 54.03876 36948 ft 525 kts 111°
2026-04-14 18:44 25.76608 54.11672 36950 ft 527 kts 111°
2026-04-14 18:44 25.74475 54.19477 36941 ft 528 kts 112°
2026-04-14 18:45 25.72348 54.27244 36947 ft 530 kts 112°
2026-04-14 18:45 25.70204 54.35055 36946 ft 531 kts 112°
2026-04-14 18:46 25.68043 54.42908 36940 ft 532 kts 112°
2026-04-14 18:46 25.65878 54.50759 36941 ft 532 kts 112°
2026-04-14 18:47 25.63704 54.58626 36941 ft 532 kts 112°
2026-04-14 18:47 25.61548 54.66408 36939 ft 532 kts 112°
2026-04-14 18:48 25.59371 54.74246 36938 ft 532 kts 113°
2026-04-14 18:48 25.57194 54.82070 36938 ft 531 kts 113°
2026-04-14 18:49 25.55011 54.89898 36938 ft 531 kts 113°
2026-04-14 18:49 25.52822 54.97727 36940 ft 531 kts 113°
2026-04-14 18:50 25.50656 55.05453 36939 ft 530 kts 113°
2026-04-14 18:50 25.48474 55.13223 36943 ft 530 kts 113°
2026-04-14 18:51 25.46270 55.21053 36941 ft 531 kts 114°
2026-04-14 18:51 25.44065 55.28867 36961 ft 531 kts 114°
2026-04-14 18:52 25.41857 55.36678 36963 ft 532 kts 114°
2026-04-14 18:52 25.39646 55.44480 36942 ft 532 kts 114°
2026-04-14 18:53 25.37433 55.52270 36957 ft 533 kts 114°
2026-04-14 18:53 25.35194 55.60136 36963 ft 534 kts 114°
2026-04-14 18:54 25.32956 55.67982 36965 ft 535 kts 114°
2026-04-14 18:54 25.30723 55.75793 36964 ft 535 kts 114°
2026-04-14 18:55 25.28479 55.83625 36964 ft 536 kts 115°
2026-04-14 18:55 25.26235 55.91441 36973 ft 536 kts 115°
2026-04-14 18:56 25.23974 55.99296 36972 ft 537 kts 115°
2026-04-14 18:56 25.21715 56.07126 36970 ft 537 kts 115°
2026-04-14 18:57 25.19459 56.14933 36961 ft 538 kts 115°
2026-04-14 18:57 25.17181 56.22797 36945 ft 538 kts 115°
2026-04-14 18:58 25.14896 56.30670 36935 ft 538 kts 115°
2026-04-14 18:58 25.12612 56.38521 36936 ft 537 kts 115°
2026-04-14 18:59 25.10316 56.46397 36933 ft 537 kts 115°
2026-04-14 18:59 25.08002 56.54202 36922 ft 533 kts 118°
2026-04-14 19:00 25.05245 56.61740 36920 ft 529 kts 121°
2026-04-14 19:00 25.02415 56.69250 36921 ft 528 kts 121°
2026-04-14 19:01 24.99613 56.76744 36919 ft 528 kts 120°
2026-04-14 19:01 24.96846 56.84189 36910 ft 528 kts 120°
2026-04-14 19:02 24.94068 56.91662 36931 ft 527 kts 120°
2026-04-14 19:02 24.91269 56.99171 36930 ft 527 kts 120°
2026-04-14 19:03 24.88494 57.06601 36910 ft 527 kts 120°
2026-04-14 19:03 24.85695 57.14080 36917 ft 526 kts 120°
2026-04-14 19:04 24.82897 57.21545 36918 ft 526 kts 120°
2026-04-14 19:04 24.80124 57.28928 36917 ft 526 kts 120°
2026-04-14 19:05 24.77304 57.36425 36914 ft 526 kts 120°
2026-04-14 19:05 24.74524 57.43801 36915 ft 526 kts 120°
2026-04-14 19:06 24.71717 57.51237 36911 ft 526 kts 120°
2026-04-14 19:06 24.68910 57.58661 36910 ft 526 kts 120°
2026-04-14 19:07 24.66097 57.66087 36908 ft 526 kts 120°
2026-04-14 19:07 24.63292 57.73481 36908 ft 526 kts 120°
2026-04-14 19:08 24.60468 57.80908 36908 ft 527 kts 121°
2026-04-14 19:08 24.58101 57.87124 36907 ft 527 kts 121°
2026-04-14 19:09 24.55278 57.94531 36904 ft 528 kts 121°
2026-04-14 19:09 24.52438 58.01968 36907 ft 528 kts 121°
2026-04-14 19:10 24.49591 58.09412 36907 ft 528 kts 121°
2026-04-14 19:10 24.46744 58.16844 36911 ft 528 kts 121°
2026-04-14 19:11 24.43908 58.24235 36907 ft 528 kts 121°
2026-04-14 19:11 24.41051 58.31668 36897 ft 528 kts 121°
2026-04-14 19:12 24.38198 58.39076 36893 ft 527 kts 121°
2026-04-14 19:13 24.33919 58.50168 36896 ft 526 kts 120°
2026-04-14 19:13 24.31059 58.57562 36898 ft 526 kts 121°
2026-04-14 19:14 24.28201 58.64926 36897 ft 525 kts 120°
2026-04-14 19:14 24.25357 58.72244 36894 ft 525 kts 120°
2026-04-14 19:15 24.22487 58.79619 36896 ft 525 kts 120°
2026-04-14 19:15 24.19624 58.86966 36895 ft 525 kts 120°
2026-04-14 19:16 24.16748 58.94334 36895 ft 525 kts 120°
2026-04-14 19:16 24.13875 59.01683 36895 ft 525 kts 120°
2026-04-14 19:17 24.10999 59.09027 36894 ft 525 kts 120°
2026-04-14 19:17 24.08117 59.16373 36890 ft 525 kts 120°
2026-04-14 19:18 24.05238 59.23700 36890 ft 524 kts 120°
2026-04-14 19:18 24.02355 59.31027 36897 ft 524 kts 120°
2026-04-14 19:19 23.99523 59.38392 36894 ft 525 kts 118°
2026-04-14 19:19 23.96810 59.45814 36885 ft 526 kts 118°
2026-04-14 19:20 23.94091 59.53238 36889 ft 526 kts 118°
2026-04-14 19:20 23.91352 59.60635 36890 ft 526 kts 118°
2026-04-14 19:21 23.88608 59.68017 36886 ft 527 kts 118°
2026-04-14 19:21 23.85848 59.75441 36891 ft 527 kts 118°
2026-04-14 19:22 23.83077 59.82874 36890 ft 528 kts 118°
2026-04-14 19:22 23.80294 59.90312 36890 ft 529 kts 118°
2026-04-14 19:23 23.77518 59.97716 36887 ft 529 kts 118°
2026-04-14 19:23 23.74722 60.05169 36886 ft 530 kts 118°
2026-04-14 19:24 23.71932 60.12594 36884 ft 530 kts 118°
2026-04-14 19:24 23.69128 60.20046 36884 ft 529 kts 118°
2026-04-14 19:25 23.66339 60.27443 36886 ft 529 kts 118°
2026-04-14 19:25 23.63525 60.34892 36876 ft 528 kts 118°
2026-04-14 19:26 23.60734 60.42270 36891 ft 528 kts 118°
2026-04-14 19:26 23.57931 60.49667 36887 ft 527 kts 118°
2026-04-14 19:27 23.55129 60.57046 36869 ft 526 kts 118°
2026-04-14 19:27 23.52329 60.64411 36883 ft 526 kts 118°
2026-04-14 19:28 23.49529 60.71762 36885 ft 526 kts 118°
2026-04-14 19:28 23.46754 60.79037 36887 ft 525 kts 118°
2026-04-14 19:29 23.43931 60.86424 36883 ft 525 kts 118°
2026-04-14 19:29 23.41120 60.93769 36884 ft 525 kts 118°
2026-04-14 19:30 23.38305 61.01113 36881 ft 525 kts 118°
2026-04-14 19:30 23.35479 61.08474 36882 ft 525 kts 118°
2026-04-14 19:31 23.32678 61.15757 36888 ft 525 kts 118°
2026-04-14 19:31 23.29689 61.22985 36886 ft 522 kts 122°
2026-04-14 19:32 23.26488 61.30099 36883 ft 521 kts 122°
2026-04-14 19:32 23.23301 61.37169 36887 ft 521 kts 122°
2026-04-14 19:33 23.20124 61.44276 36884 ft 521 kts 122°
2026-04-14 19:33 23.16958 61.51370 36887 ft 520 kts 122°
2026-04-14 19:34 23.12237 61.61923 36883 ft 520 kts 122°
2026-04-14 19:34 23.09073 61.68979 36887 ft 519 kts 122°
2026-04-14 19:35 23.05908 61.76028 36883 ft 518 kts 122°
2026-04-14 19:35 23.02776 61.83000 36888 ft 518 kts 122°
2026-04-14 19:36 22.99698 61.89846 36884 ft 517 kts 122°
2026-04-14 19:36 22.96897 61.96070 36887 ft 517 kts 122°
2026-04-14 19:37 22.94083 62.02314 36888 ft 517 kts 122°
2026-04-14 19:37 22.91242 62.08609 36885 ft 516 kts 122°
2026-04-14 19:38 22.88217 62.15303 36884 ft 516 kts 122°
2026-04-14 19:38 22.85327 62.21690 36890 ft 516 kts 122°
2026-04-14 19:39 22.82570 62.27774 36884 ft 515 kts 122°
2026-04-14 19:39 22.79595 62.34332 36884 ft 515 kts 122°
2026-04-14 19:40 22.76803 62.40479 36886 ft 515 kts 122°
2026-04-14 19:40 22.73821 62.47033 36886 ft 515 kts 122°
2026-04-14 19:41 22.70979 62.53275 36886 ft 515 kts 122°
2026-04-14 19:41 22.68155 62.59468 36885 ft 515 kts 122°
2026-04-14 19:42 22.65189 62.65963 36885 ft 515 kts 122°
2026-04-14 19:42 22.62116 62.72684 36887 ft 515 kts 122°
2026-04-14 19:43 22.59161 62.79140 36882 ft 515 kts 122°
2026-04-14 19:43 22.56133 62.85746 36896 ft 515 kts 122°
2026-04-14 19:44 22.53163 62.92215 36880 ft 515 kts 122°
2026-04-14 19:44 22.50271 62.98509 36869 ft 516 kts 122°
2026-04-14 19:45 22.47333 63.04898 36896 ft 515 kts 122°
2026-04-14 19:45 22.44321 63.11435 36891 ft 515 kts 122°
2026-04-14 19:46 22.41547 63.17552 36869 ft 516 kts 121°
2026-04-14 19:46 22.38451 63.24508 36888 ft 516 kts 121°
2026-04-14 19:47 22.35499 63.31137 36881 ft 515 kts 121°
2026-04-14 19:47 22.33223 63.36224 36884 ft 515 kts 121°
2026-04-14 19:48 22.30521 63.42248 36883 ft 515 kts 121°
2026-04-14 19:48 22.27555 63.48846 36880 ft 515 kts 121°
2026-04-14 19:49 22.24470 63.55700 36880 ft 514 kts 121°
2026-04-14 19:49 22.21986 63.61215 36884 ft 514 kts 121°
2026-04-14 19:50 22.18821 63.68231 36883 ft 514 kts 121°
2026-04-14 19:50 22.16221 63.73986 36885 ft 514 kts 121°
2026-04-14 19:51 22.12719 63.81731 36883 ft 514 kts 121°
2026-04-14 19:51 22.10390 63.86873 36885 ft 514 kts 121°
2026-04-14 19:52 22.07448 63.93362 36883 ft 514 kts 121°
2026-04-14 19:52 22.04441 63.99986 36882 ft 514 kts 121°
2026-04-14 19:53 22.01451 64.06564 36882 ft 514 kts 121°
2026-04-14 19:53 21.98482 64.13087 36884 ft 514 kts 121°
2026-04-14 19:54 21.94270 64.22327 36880 ft 515 kts 121°
2026-04-14 19:55 21.91207 64.29036 36880 ft 515 kts 121°
2026-04-14 19:55 21.88286 64.35426 36882 ft 515 kts 121°
2026-04-14 19:56 21.85249 64.42061 36881 ft 515 kts 121°
2026-04-14 19:56 21.82208 64.48697 36879 ft 515 kts 121°
2026-04-14 19:57 21.79301 64.55031 36880 ft 515 kts 121°
2026-04-14 19:57 21.76332 64.61494 36886 ft 515 kts 121°
2026-04-14 19:58 21.73283 64.68119 36885 ft 515 kts 121°
2026-04-14 19:58 21.70450 64.74270 36881 ft 515 kts 121°
2026-04-14 19:59 21.67256 64.81195 36883 ft 515 kts 121°
2026-04-14 19:59 21.64208 64.87794 36881 ft 515 kts 121°
2026-04-14 20:00 21.61130 64.94452 36882 ft 515 kts 121°
2026-04-14 20:00 21.58158 65.00870 36877 ft 515 kts 121°
2026-04-14 20:01 21.55182 65.07291 36879 ft 515 kts 121°
2026-04-14 20:01 21.52113 65.13902 36880 ft 515 kts 121°
2026-04-14 20:02 21.49283 65.19992 36883 ft 515 kts 121°
2026-04-14 20:02 21.46167 65.26690 36881 ft 514 kts 121°
2026-04-14 20:03 21.43148 65.33171 36880 ft 514 kts 121°
2026-04-14 20:03 21.40034 65.39846 36874 ft 514 kts 121°
2026-04-14 20:04 21.36814 65.46739 36881 ft 514 kts 121°
2026-04-14 20:04 21.33755 65.53281 36890 ft 514 kts 121°
2026-04-14 20:05 21.30731 65.59738 36884 ft 514 kts 121°
2026-04-14 20:05 21.27810 65.65970 36878 ft 514 kts 121°
2026-04-14 20:06 21.24782 65.72423 36882 ft 514 kts 121°
2026-04-14 20:06 21.21647 65.79093 36881 ft 514 kts 121°
2026-04-14 20:07 21.18814 65.85115 36881 ft 514 kts 121°
2026-04-14 20:07 21.15722 65.91681 36880 ft 514 kts 121°
2026-04-14 20:08 21.12664 65.98168 36883 ft 514 kts 121°
2026-04-14 20:08 21.09728 66.04472 36877 ft 514 kts 120°
2026-04-14 20:09 21.06892 66.10734 36883 ft 514 kts 120°
2026-04-14 20:09 21.03766 66.17658 36882 ft 514 kts 120°
2026-04-14 20:10 21.00796 66.24203 36881 ft 514 kts 120°
2026-04-14 20:10 20.97745 66.30899 36879 ft 514 kts 120°
2026-04-14 20:11 20.94906 66.37118 36879 ft 513 kts 120°
2026-04-14 20:11 20.91904 66.43685 36878 ft 513 kts 120°
2026-04-14 20:12 20.88919 66.50210 36879 ft 513 kts 120°
2026-04-14 20:12 20.86096 66.56374 36879 ft 513 kts 120°
2026-04-14 20:13 20.83311 66.62447 36879 ft 513 kts 120°
2026-04-14 20:13 20.80395 66.68800 36880 ft 513 kts 120°
2026-04-14 20:14 20.77541 66.75010 36879 ft 513 kts 120°
2026-04-14 20:14 20.74543 66.81523 36884 ft 513 kts 120°
2026-04-14 20:15 20.71406 66.88332 36884 ft 513 kts 120°
2026-04-14 20:15 20.68356 66.94943 36883 ft 513 kts 120°
2026-04-14 20:16 20.65481 67.01170 36879 ft 513 kts 120°
2026-04-14 20:16 20.62506 67.07602 36880 ft 513 kts 120°
2026-04-14 20:17 20.59592 67.13898 36880 ft 513 kts 120°
2026-04-14 20:17 20.56621 67.20307 36876 ft 513 kts 120°
2026-04-14 20:18 20.53641 67.26730 36878 ft 513 kts 120°
2026-04-14 20:18 20.50733 67.32989 36881 ft 513 kts 120°
2026-04-14 20:19 20.47618 67.39686 36875 ft 513 kts 120°
2026-04-14 20:19 20.44526 67.46325 36875 ft 513 kts 120°
2026-04-14 20:20 20.41657 67.52479 36871 ft 513 kts 120°
2026-04-14 20:20 20.38575 67.59081 36874 ft 513 kts 120°
2026-04-14 20:21 20.35570 67.65511 36873 ft 513 kts 120°
2026-04-14 20:21 20.32477 67.72121 36876 ft 513 kts 120°
2026-04-14 20:22 20.29507 67.78461 36872 ft 513 kts 120°
2026-04-14 20:22 20.26493 67.84886 36875 ft 513 kts 120°
2026-04-14 20:23 20.23511 67.91237 36871 ft 513 kts 120°
2026-04-14 20:23 20.20576 67.97481 36875 ft 513 kts 120°
2026-04-14 20:24 20.17462 68.04098 36873 ft 513 kts 120°
2026-04-14 20:24 20.14309 68.10790 36870 ft 513 kts 120°
2026-04-14 20:25 20.11155 68.17481 36525 ft 501 kts 120°
2026-04-14 20:25 20.09601 68.20777 35921 ft 499 kts 120°
2026-04-14 20:25 20.08032 68.24093 35052 ft 503 kts 120°
2026-04-14 20:25 20.06453 68.27427 34133 ft 509 kts 119°
2026-04-14 20:26 20.04855 68.30801 33176 ft 512 kts 119°
2026-04-14 20:26 20.03248 68.34195 32239 ft 514 kts 119°
2026-04-14 20:26 20.01640 68.37592 31331 ft 514 kts 118°
2026-04-14 20:26 20.00035 68.40982 30560 ft 512 kts 118°
2026-04-14 20:27 19.98437 68.44355 29985 ft 505 kts 118°
2026-04-14 20:27 19.96869 68.47662 29415 ft 498 kts 118°
2026-04-14 20:27 19.95329 68.50909 28817 ft 492 kts 118°
2026-04-14 20:27 19.93794 68.54140 28172 ft 487 kts 118°
2026-04-14 20:28 19.92275 68.57336 27529 ft 483 kts 118°
2026-04-14 20:28 19.90770 68.60501 26919 ft 479 kts 118°
2026-04-14 20:28 19.89269 68.63654 26333 ft 474 kts 118°
2026-04-14 20:28 19.87805 68.66729 25767 ft 470 kts 118°
2026-04-14 20:29 19.86307 68.69874 25177 ft 466 kts 118°
2026-04-14 20:29 19.84866 68.72897 24658 ft 463 kts 118°
2026-04-14 20:29 19.83415 68.75938 24109 ft 459 kts 118°
2026-04-14 20:29 19.81980 68.78946 23587 ft 455 kts 118°
2026-04-14 20:30 19.80553 68.81934 23005 ft 451 kts 118°
2026-04-14 20:30 19.79142 68.84889 22429 ft 447 kts 118°
2026-04-14 20:30 19.77743 68.87816 21867 ft 443 kts 118°
2026-04-14 20:30 19.76348 68.90732 21289 ft 440 kts 118°
2026-04-14 20:31 19.74966 68.93621 20736 ft 437 kts 117°
2026-04-14 20:31 19.73596 68.96483 20218 ft 433 kts 117°
2026-04-14 20:31 19.72231 68.99335 19707 ft 430 kts 117°
2026-04-14 20:31 19.70882 69.02152 19221 ft 426 kts 117°
2026-04-14 20:32 19.69563 69.04904 18748 ft 423 kts 117°
2026-04-14 20:32 19.68240 69.07663 18258 ft 420 kts 116°
2026-04-14 20:32 19.66908 69.10439 17704 ft 418 kts 116°
2026-04-14 20:32 19.66025 69.12280 17337 ft 416 kts 116°
2026-04-14 20:33 19.64293 69.15887 16629 ft 413 kts 116°
2026-04-14 20:33 19.62971 69.18638 16108 ft 411 kts 116°
2026-04-14 20:33 19.61700 69.21283 15625 ft 408 kts 116°
2026-04-14 20:34 19.59128 69.26631 14637 ft 404 kts 116°
2026-04-14 20:34 19.57855 69.29277 14136 ft 403 kts 116°
2026-04-14 20:34 19.56586 69.31913 13663 ft 402 kts 116°
2026-04-14 20:34 19.55306 69.34568 13176 ft 398 kts 116°
2026-04-14 20:35 19.54059 69.37158 12739 ft 395 kts 116°
2026-04-14 20:35 19.52814 69.39740 12262 ft 392 kts 116°
2026-04-14 20:35 19.51579 69.42305 11798 ft 390 kts 117°
2026-04-14 20:35 19.50346 69.44865 11376 ft 387 kts 117°
2026-04-14 20:36 19.49131 69.47387 10960 ft 384 kts 117°
2026-04-14 20:36 19.47931 69.49879 10510 ft 382 kts 117°
2026-04-14 20:36 19.47119 69.51564 10240 ft 380 kts 117°
2026-04-14 20:36 19.45537 69.54850 9701 ft 376 kts 117°
2026-04-14 20:37 19.44751 69.56481 9410 ft 374 kts 117°
2026-04-14 20:37 19.43177 69.59748 8833 ft 371 kts 117°
2026-04-14 20:37 19.42004 69.62181 8372 ft 369 kts 117°
2026-04-14 20:37 19.40839 69.64599 7991 ft 366 kts 117°
2026-04-14 20:38 19.39689 69.66986 7853 ft 358 kts 117°
2026-04-14 20:38 19.38923 69.68574 7853 ft 357 kts 117°
2026-04-14 20:38 19.37799 69.70905 7860 ft 364 kts 117°
2026-04-14 20:38 19.36634 69.73316 7856 ft 369 kts 117°
2026-04-14 20:39 19.35462 69.75743 7855 ft 371 kts 117°
2026-04-14 20:39 19.34292 69.78168 7848 ft 370 kts 117°
2026-04-14 20:39 19.33123 69.80589 7851 ft 369 kts 117°
2026-04-14 20:39 19.31953 69.83013 7850 ft 368 kts 117°
2026-04-14 20:40 19.30805 69.85394 7847 ft 367 kts 117°
2026-04-14 20:40 19.29636 69.87816 7842 ft 365 kts 117°
2026-04-14 20:40 19.28484 69.90204 7844 ft 365 kts 117°
2026-04-14 20:40 19.27330 69.92595 7843 ft 364 kts 117°
2026-04-14 20:41 19.26169 69.94998 7845 ft 364 kts 117°
2026-04-14 20:41 19.25021 69.97377 7850 ft 364 kts 117°
2026-04-14 20:41 19.23884 69.99731 7851 ft 365 kts 117°
2026-04-14 20:41 19.22711 70.02161 7848 ft 366 kts 117°
2026-04-14 20:42 19.21567 70.04529 7847 ft 366 kts 117°
2026-04-14 20:42 19.20403 70.06938 7841 ft 367 kts 117°
2026-04-14 20:42 19.18076 70.11755 7846 ft 367 kts 117°
2026-04-14 20:43 19.16911 70.14168 7845 ft 367 kts 117°
2026-04-14 20:43 19.15755 70.16561 7846 ft 367 kts 117°
2026-04-14 20:43 19.14593 70.18967 7841 ft 367 kts 117°
2026-04-14 20:43 19.13443 70.21346 7840 ft 366 kts 117°
2026-04-14 20:44 19.12281 70.23751 7845 ft 366 kts 117°
2026-04-14 20:44 19.11128 70.26137 7846 ft 365 kts 117°
2026-04-14 20:44 19.09974 70.28526 7848 ft 365 kts 117°
2026-04-14 20:44 19.08813 70.30927 7845 ft 365 kts 117°
2026-04-14 20:45 19.07655 70.33323 7843 ft 365 kts 117°
2026-04-14 20:45 19.06514 70.35684 7840 ft 365 kts 117°
2026-04-14 20:45 19.05357 70.38078 7841 ft 365 kts 117°
2026-04-14 20:45 19.04187 70.40499 7841 ft 365 kts 117°
2026-04-14 20:46 19.03046 70.42858 7845 ft 365 kts 117°
2026-04-14 20:46 19.01896 70.45237 7846 ft 365 kts 117°
2026-04-14 20:46 19.00739 70.47631 7841 ft 365 kts 117°
2026-04-14 20:46 18.99584 70.50018 7839 ft 365 kts 117°
2026-04-14 20:47 18.98429 70.52408 7837 ft 364 kts 117°
2026-04-14 20:47 18.97282 70.54781 7839 ft 364 kts 117°
2026-04-14 20:47 18.96123 70.57178 7847 ft 364 kts 117°
2026-04-14 20:47 18.94979 70.59544 7840 ft 364 kts 117°
2026-04-14 20:48 18.93824 70.61931 7840 ft 364 kts 117°
2026-04-14 20:48 18.92669 70.64319 7840 ft 364 kts 117°
2026-04-14 20:48 18.91518 70.66699 7839 ft 364 kts 117°
2026-04-14 20:48 18.90367 70.69077 7841 ft 364 kts 117°
2026-04-14 20:49 18.89214 70.71461 7840 ft 364 kts 117°
2026-04-14 20:49 18.88059 70.73847 7843 ft 364 kts 117°
2026-04-14 20:49 18.86902 70.76237 7841 ft 364 kts 117°
2026-04-14 20:49 18.85757 70.78603 7842 ft 364 kts 117°
2026-04-14 20:50 18.84604 70.80984 7834 ft 364 kts 117°
2026-04-14 20:50 18.83452 70.83365 7838 ft 364 kts 117°
2026-04-14 20:50 18.82296 70.85752 7837 ft 363 kts 117°
2026-04-14 20:50 18.81151 70.88117 7841 ft 363 kts 117°
2026-04-14 20:51 18.80011 70.90471 7841 ft 363 kts 117°
2026-04-14 20:51 18.78855 70.92858 7840 ft 363 kts 117°
2026-04-14 20:51 18.77720 70.95201 7839 ft 362 kts 117°
2026-04-14 20:51 18.76580 70.97556 7835 ft 362 kts 117°
2026-04-14 20:52 18.75426 70.99937 7837 ft 362 kts 117°
2026-04-14 20:52 18.74285 71.02293 7841 ft 361 kts 117°
2026-04-14 20:52 18.73139 71.04659 7836 ft 361 kts 117°
2026-04-14 20:52 18.71989 71.07032 7838 ft 361 kts 117°
2026-04-14 20:53 18.70841 71.09402 7834 ft 361 kts 117°
2026-04-14 20:53 18.69700 71.11756 7831 ft 361 kts 117°
2026-04-14 20:53 18.68555 71.14117 7834 ft 361 kts 117°
2026-04-14 20:53 18.67413 71.16473 7834 ft 361 kts 117°
2026-04-14 20:54 18.66269 71.18834 7833 ft 361 kts 117°
2026-04-14 20:54 18.65117 71.21208 7832 ft 362 kts 117°
2026-04-14 20:54 18.63993 71.23527 7834 ft 362 kts 117°
2026-04-14 20:54 18.62839 71.25907 7829 ft 362 kts 117°
2026-04-14 20:55 18.61694 71.28269 7832 ft 361 kts 117°
2026-04-14 20:55 18.60553 71.30621 7832 ft 361 kts 117°
2026-04-14 20:55 18.59407 71.32986 7830 ft 361 kts 117°
2026-04-14 20:55 18.58262 71.35346 7831 ft 361 kts 117°
2026-04-14 20:56 18.57146 71.37647 7830 ft 361 kts 117°
2026-04-14 20:56 18.55984 71.40043 7828 ft 360 kts 117°
2026-04-14 20:56 18.54850 71.42379 7830 ft 360 kts 117°
2026-04-14 20:56 18.53718 71.44713 7829 ft 360 kts 117°
2026-04-14 20:57 18.52574 71.47071 7830 ft 360 kts 117°
2026-04-14 20:57 18.51432 71.49424 7827 ft 360 kts 117°
2026-04-14 20:57 18.50292 71.51773 7828 ft 359 kts 117°
2026-04-14 20:57 18.49154 71.54117 7827 ft 359 kts 117°
2026-04-14 20:58 18.48019 71.56456 7823 ft 359 kts 117°
2026-04-14 20:58 18.46885 71.58792 7828 ft 359 kts 117°
2026-04-14 20:58 18.45744 71.61142 7826 ft 359 kts 117°
2026-04-14 20:58 18.44606 71.63486 7824 ft 359 kts 117°
2026-04-14 20:59 18.43472 71.65822 7826 ft 359 kts 117°
2026-04-14 20:59 18.42335 71.68165 7827 ft 359 kts 117°
2026-04-14 20:59 18.41224 71.70452 7823 ft 358 kts 117°
2026-04-14 20:59 18.40084 71.72799 7814 ft 354 kts 117°
2026-04-14 21:00 18.38982 71.75071 7808 ft 342 kts 117°
2026-04-14 21:00 18.37914 71.77272 7801 ft 332 kts 117°
2026-04-14 21:00 18.36922 71.79437 7804 ft 326 kts 110°
2026-04-14 21:00 18.36575 71.81805 7824 ft 330 kts 86°
2026-04-14 21:01 18.37093 71.84143 7828 ft 330 kts 66°
2026-04-14 21:01 18.38299 71.86143 7819 ft 316 kts 53°
2026-04-14 21:01 18.39600 71.87939 7711 ft 298 kts 53°
2026-04-14 21:01 18.40802 71.89636 7590 ft 280 kts 53°
2026-04-14 21:02 18.41924 71.91227 7455 ft 260 kts 53°
2026-04-14 21:02 18.42937 71.92668 7320 ft 242 kts 53°
2026-04-14 21:02 18.43917 71.94065 7074 ft 228 kts 53°
2026-04-14 21:02 18.44852 71.95402 6711 ft 222 kts 53°
2026-04-14 21:03 18.45755 71.96693 6284 ft 220 kts 53°
2026-04-14 21:03 18.46668 71.98000 5793 ft 219 kts 53°
2026-04-14 21:03 18.47569 71.99292 5344 ft 218 kts 52°
2026-04-14 21:03 18.48463 72.00576 4898 ft 216 kts 52°
2026-04-14 21:04 18.49343 72.01839 4452 ft 214 kts 52°
2026-04-14 21:04 18.50220 72.03099 4015 ft 212 kts 51°
2026-04-14 21:04 18.51086 72.04345 3602 ft 209 kts 51°
2026-04-14 21:04 18.51928 72.05557 3151 ft 207 kts 51°
2026-04-14 21:05 18.52771 72.06769 2854 ft 201 kts 50°
2026-04-14 21:05 18.53605 72.07971 2844 ft 205 kts 50°
2026-04-14 21:05 18.54464 72.09204 2816 ft 206 kts 50°
2026-04-14 21:05 18.55317 72.10429 2845 ft 209 kts 50°
2026-04-14 21:06 18.56179 72.11669 2810 ft 208 kts 50°
2026-04-14 21:06 18.57023 72.12888 2822 ft 207 kts 50°
2026-04-14 21:06 18.57877 72.14120 2823 ft 207 kts 50°
2026-04-14 21:06 18.58718 72.15333 2819 ft 207 kts 50°
2026-04-14 21:07 18.59567 72.16556 2821 ft 205 kts 50°
2026-04-14 21:07 18.60409 72.17771 2819 ft 205 kts 50°
2026-04-14 21:07 18.61250 72.18984 2820 ft 206 kts 49°
2026-04-14 21:07 18.62107 72.20218 2857 ft 209 kts 50°
2026-04-14 21:08 18.62953 72.21441 2818 ft 205 kts 50°
2026-04-14 21:08 18.63803 72.22665 2818 ft 206 kts 50°
2026-04-14 21:08 18.64639 72.23873 2821 ft 205 kts 50°
2026-04-14 21:08 18.65486 72.25097 2823 ft 206 kts 50°
2026-04-14 21:09 18.66337 72.26325 2819 ft 208 kts 50°
2026-04-14 21:09 18.67195 72.27564 2852 ft 209 kts 51°
2026-04-14 21:09 18.68033 72.28774 2817 ft 207 kts 51°
2026-04-14 21:09 18.68898 72.30024 2833 ft 215 kts 50°
2026-04-14 21:10 18.69814 72.31342 2834 ft 225 kts 51°
2026-04-14 21:10 18.70706 72.32632 2824 ft 220 kts 50°
2026-04-14 21:10 18.71615 72.33946 2847 ft 226 kts 51°
2026-04-14 21:10 18.72553 72.35303 2822 ft 232 kts 51°
2026-04-14 21:11 18.73519 72.36702 2859 ft 234 kts 51°